UAL3242 KLAL-KLAN

Flight info

Callsign UAL3242
Flight time N/A
Altitude 41000
Route NITTS WILON CAMJO ALLMA MHONY DEWAK PKACZ JECKA
Aircraft A359/H-SDE2E3GHIJ3J4J5LM1ORWXY/LB1D1

Departure

Time 2026-04-26 05:21
Airport Lakeland Linder International Airport (KLAL)

Arrival

Time N/A
Airport Capital Region International Airport (KLAN)
Time Latitude Longitude Altitude Speed Heading
2026-04-26 04:57 27.99224 -82.01553 151 ft 0 kts 127°
2026-04-26 05:05 27.99223 -82.01552 160 ft 0 kts 127°
2026-04-26 05:07 27.99190 -82.01438 149 ft 25 kts 90°
2026-04-26 05:07 27.99148 -82.01336 149 ft 5 kts 176°
2026-04-26 05:08 27.99081 -82.01383 150 ft 25 kts 222°
2026-04-26 05:08 27.98956 -82.01534 150 ft 25 kts 244°
2026-04-26 05:08 27.98930 -82.01733 152 ft 26 kts 268°
2026-04-26 05:08 27.98930 -82.01935 152 ft 26 kts 270°
2026-04-26 05:09 27.98929 -82.02153 149 ft 28 kts 269°
2026-04-26 05:09 27.98974 -82.02294 151 ft 9 kts 344°
2026-04-26 05:09 27.99029 -82.02341 151 ft 15 kts 292°
2026-04-26 05:09 27.99036 -82.02500 149 ft 28 kts 270°
2026-04-26 05:10 27.99037 -82.02725 149 ft 25 kts 270°
2026-04-26 05:10 27.99037 -82.02838 149 ft 14 kts 269°
2026-04-26 05:10 27.99035 -82.03014 146 ft 33 kts 270°
2026-04-26 05:10 27.99034 -82.03255 145 ft 16 kts 269°
2026-04-26 05:11 27.99034 -82.03264 145 ft 0 kts 270°
2026-04-26 05:18 27.99006 -82.03352 145 ft 5 kts 214°
2026-04-26 05:18 27.98954 -82.03375 146 ft 0 kts 181°
2026-04-26 05:19 27.98948 -82.03374 147 ft 7 kts 174°
2026-04-26 05:19 27.98927 -82.03343 147 ft 4 kts 101°
2026-04-26 05:19 27.98927 -82.03330 147 ft 0 kts 90°
2026-04-26 05:20 27.98927 -82.03301 147 ft 24 kts 90°
2026-04-26 05:21 27.98927 -82.02713 147 ft 123 kts 89°
2026-04-26 05:21 27.98913 -82.01460 466 ft 180 kts 92°
2026-04-26 05:21 27.98770 -81.99989 1422 ft 197 kts 97°
2026-04-26 05:21 27.99094 -81.98373 2230 ft 229 kts 57°
2026-04-26 05:22 28.00396 -81.97219 3208 ft 254 kts 19°
2026-04-26 05:22 28.02176 -81.97144 4367 ft 265 kts 342°
2026-04-26 05:22 28.03723 -81.98240 5639 ft 266 kts 308°
2026-04-26 05:22 28.04551 -82.00087 6964 ft 264 kts 284°
2026-04-26 05:23 28.04964 -82.02116 8262 ft 265 kts 280°
2026-04-26 05:23 28.05479 -82.04130 9483 ft 269 kts 298°
2026-04-26 05:23 28.06671 -82.05743 10550 ft 277 kts 317°
2026-04-26 05:23 28.08300 -82.07073 11056 ft 301 kts 327°
2026-04-26 05:24 28.10208 -82.08234 11385 ft 322 kts 332°
2026-04-26 05:24 28.12294 -82.09371 11713 ft 341 kts 332°
2026-04-26 05:24 28.14462 -82.10568 12271 ft 350 kts 332°
2026-04-26 05:24 28.16647 -82.11838 12991 ft 354 kts 330°
2026-04-26 05:25 28.18827 -82.13171 13734 ft 357 kts 329°
2026-04-26 05:25 28.21005 -82.14552 14382 ft 360 kts 329°
2026-04-26 05:25 28.23164 -82.15950 14965 ft 364 kts 329°
2026-04-26 05:25 28.25379 -82.17400 15564 ft 368 kts 329°
2026-04-26 05:26 28.27613 -82.18866 16191 ft 372 kts 329°
2026-04-26 05:26 28.29865 -82.20344 16826 ft 376 kts 329°
2026-04-26 05:26 28.32142 -82.21835 17461 ft 380 kts 330°
2026-04-26 05:26 28.34445 -82.23342 18087 ft 384 kts 330°
2026-04-26 05:27 28.36773 -82.24863 18662 ft 387 kts 330°
2026-04-26 05:27 28.39123 -82.26398 19209 ft 391 kts 330°
2026-04-26 05:27 28.41457 -82.27924 19775 ft 394 kts 329°
2026-04-26 05:27 28.43857 -82.29493 20340 ft 398 kts 329°
2026-04-26 05:28 28.46269 -82.31072 20892 ft 403 kts 329°
2026-04-26 05:28 28.48708 -82.32669 21420 ft 407 kts 329°
2026-04-26 05:28 28.51168 -82.34282 22001 ft 410 kts 329°
2026-04-26 05:28 28.53649 -82.35908 22599 ft 413 kts 329°
2026-04-26 05:29 28.56153 -82.37550 23175 ft 416 kts 329°
2026-04-26 05:29 28.58669 -82.39202 23738 ft 420 kts 328°
2026-04-26 05:29 28.61212 -82.40873 24309 ft 420 kts 329°
2026-04-26 05:29 28.63709 -82.42514 24911 ft 420 kts 329°
2026-04-26 05:30 28.66258 -82.44190 25373 ft 425 kts 329°
2026-04-26 05:30 28.68831 -82.45882 25848 ft 428 kts 328°
2026-04-26 05:30 28.71422 -82.47588 26334 ft 432 kts 328°
2026-04-26 05:30 28.74140 -82.49104 26782 ft 438 kts 337°
2026-04-26 05:31 28.77047 -82.50202 27246 ft 443 kts 341°
2026-04-26 05:31 28.80027 -82.51174 27707 ft 447 kts 342°
2026-04-26 05:31 28.83051 -82.52083 28192 ft 450 kts 343°
2026-04-26 05:31 28.86103 -82.52963 28652 ft 454 kts 343°
2026-04-26 05:32 28.89177 -82.53841 29110 ft 457 kts 343°
2026-04-26 05:32 28.92271 -82.54727 29557 ft 460 kts 343°
2026-04-26 05:32 28.95343 -82.55615 29983 ft 463 kts 343°
2026-04-26 05:32 28.98475 -82.56528 30342 ft 467 kts 343°
2026-04-26 05:33 29.01633 -82.57454 30684 ft 469 kts 342°
2026-04-26 05:33 29.04807 -82.58387 31061 ft 472 kts 342°
2026-04-26 05:33 29.07994 -82.59326 31393 ft 474 kts 342°
2026-04-26 05:33 29.11199 -82.60272 31723 ft 477 kts 342°
2026-04-26 05:34 29.14421 -82.61224 32042 ft 479 kts 342°
2026-04-26 05:34 29.17657 -82.62179 32346 ft 481 kts 342°
2026-04-26 05:34 29.20907 -82.63140 32654 ft 483 kts 342°
2026-04-26 05:34 29.24159 -82.64100 33056 ft 482 kts 342°
2026-04-26 05:35 29.27406 -82.65059 33494 ft 481 kts 342°
2026-04-26 05:35 29.30602 -82.66003 33920 ft 480 kts 342°
2026-04-26 05:35 29.33833 -82.66959 34301 ft 479 kts 342°
2026-04-26 05:35 29.37048 -82.67911 34712 ft 476 kts 342°
2026-04-26 05:36 29.40271 -82.68768 35105 ft 476 kts 346°
2026-04-26 05:36 29.43572 -82.69184 35476 ft 479 kts 354°
2026-04-26 05:36 29.46903 -82.69298 35816 ft 479 kts 355°
2026-04-26 05:36 29.50237 -82.69328 36122 ft 479 kts 355°
2026-04-26 05:37 29.53572 -82.69311 36437 ft 478 kts 356°
2026-04-26 05:37 29.56900 -82.69275 36755 ft 477 kts 356°
2026-04-26 05:37 29.60221 -82.69235 37063 ft 476 kts 356°
2026-04-26 05:37 29.63487 -82.69200 37381 ft 475 kts 355°
2026-04-26 05:38 29.66798 -82.69170 37620 ft 475 kts 355°
2026-04-26 05:38 29.70102 -82.69145 37882 ft 475 kts 355°
2026-04-26 05:38 29.73403 -82.69122 38160 ft 474 kts 355°
2026-04-26 05:38 29.76697 -82.69102 38441 ft 473 kts 355°
2026-04-26 05:39 29.79987 -82.69081 38663 ft 472 kts 355°
2026-04-26 05:39 29.83279 -82.69062 38871 ft 472 kts 355°
2026-04-26 05:39 29.86560 -82.69042 39054 ft 471 kts 355°
2026-04-26 05:39 29.89846 -82.69022 39224 ft 471 kts 355°
2026-04-26 05:40 29.93125 -82.69002 39383 ft 472 kts 355°
2026-04-26 05:40 29.96419 -82.68982 39481 ft 474 kts 355°
2026-04-26 05:40 29.99719 -82.68962 39637 ft 474 kts 355°
2026-04-26 05:40 30.02978 -82.68942 39810 ft 473 kts 355°
2026-04-26 05:41 30.06273 -82.68920 39966 ft 473 kts 355°
2026-04-26 05:41 30.09561 -82.68899 40128 ft 472 kts 355°
2026-04-26 05:41 30.12850 -82.68878 40267 ft 472 kts 355°
2026-04-26 05:41 30.16146 -82.68857 40406 ft 472 kts 355°
2026-04-26 05:42 30.19440 -82.68837 40547 ft 472 kts 355°
2026-04-26 05:42 30.22738 -82.68816 40641 ft 474 kts 355°
2026-04-26 05:42 30.29304 -82.68776 40886 ft 475 kts 355°
2026-04-26 05:43 30.32612 -82.68755 40993 ft 475 kts 355°
2026-04-26 05:43 30.35919 -82.68734 41004 ft 474 kts 355°
2026-04-26 05:43 30.42526 -82.68692 41022 ft 474 kts 355°
2026-04-26 05:44 30.49130 -82.68634 41019 ft 475 kts 357°
2026-04-26 05:44 30.55748 -82.67813 41021 ft 480 kts
2026-04-26 05:45 30.62361 -82.66706 41021 ft 480 kts
2026-04-26 05:45 30.68969 -82.65547 41020 ft 480 kts
2026-04-26 05:46 30.75582 -82.64392 41023 ft 481 kts
2026-04-26 05:46 30.82169 -82.63250 41001 ft 482 kts
2026-04-26 05:47 30.88813 -82.62101 40988 ft 483 kts
2026-04-26 05:47 30.95466 -82.60949 40950 ft 483 kts
2026-04-26 05:48 31.02111 -82.59796 40942 ft 482 kts
2026-04-26 05:48 31.08759 -82.58641 40950 ft 483 kts
2026-04-26 05:49 31.18718 -82.56908 40947 ft 483 kts
2026-04-26 05:50 31.25374 -82.55747 40943 ft 483 kts
2026-04-26 05:50 31.32035 -82.54584 40936 ft 483 kts
2026-04-26 05:51 31.38689 -82.53420 40919 ft 483 kts
2026-04-26 05:51 31.45340 -82.52256 40913 ft 483 kts
2026-04-26 05:52 31.51998 -82.51164 40922 ft 480 kts 359°
2026-04-26 05:52 31.58562 -82.51318 40931 ft 473 kts 351°
2026-04-26 05:53 31.65128 -82.51958 40907 ft 472 kts 349°
2026-04-26 05:53 31.71670 -82.52682 40907 ft 472 kts 349°
2026-04-26 05:54 31.78214 -82.53402 40907 ft 472 kts 349°
2026-04-26 05:54 31.84762 -82.54106 40906 ft 472 kts 349°
2026-04-26 05:55 31.91314 -82.54806 40908 ft 473 kts 349°
2026-04-26 05:55 31.97873 -82.55506 40905 ft 473 kts 349°
2026-04-26 05:56 32.04433 -82.56208 40906 ft 473 kts 349°
2026-04-26 05:56 32.10950 -82.56906 40900 ft 473 kts 349°
2026-04-26 05:57 32.17506 -82.57610 40905 ft 473 kts 349°
2026-04-26 05:57 32.24065 -82.58316 40904 ft 473 kts 349°
2026-04-26 05:58 32.30621 -82.59022 40903 ft 473 kts 349°
2026-04-26 05:58 32.37181 -82.59730 40900 ft 473 kts 349°
2026-04-26 05:59 32.43741 -82.60438 40902 ft 473 kts 349°
2026-04-26 05:59 32.50262 -82.61144 40902 ft 473 kts 349°
2026-04-26 06:00 32.56821 -82.61855 40903 ft 473 kts 349°
2026-04-26 06:00 32.63384 -82.62566 40905 ft 473 kts 349°
2026-04-26 06:01 32.69945 -82.63280 40909 ft 473 kts 349°
2026-04-26 06:01 32.76523 -82.63996 40898 ft 474 kts 349°
2026-04-26 06:02 32.83101 -82.64713 40897 ft 474 kts 349°
2026-04-26 06:02 32.89642 -82.65426 40895 ft 474 kts 349°
2026-04-26 06:03 32.96221 -82.66145 40903 ft 474 kts 349°
2026-04-26 06:03 33.02797 -82.66866 40894 ft 475 kts 349°
2026-04-26 06:04 33.09350 -82.67584 40895 ft 475 kts 349°
2026-04-26 06:04 33.15932 -82.68307 40896 ft 475 kts 349°
2026-04-26 06:05 33.22518 -82.69031 40903 ft 475 kts 349°
2026-04-26 06:05 33.29103 -82.69756 40920 ft 475 kts 349°
2026-04-26 06:06 33.35693 -82.70483 40934 ft 475 kts 349°
2026-04-26 06:06 33.42280 -82.71210 40943 ft 475 kts 349°
2026-04-26 06:07 33.48828 -82.71935 40956 ft 475 kts 349°
2026-04-26 06:07 33.55415 -82.72666 40943 ft 476 kts 349°
2026-04-26 06:08 33.60896 -82.73274 40934 ft 476 kts 349°
2026-04-26 06:08 33.67488 -82.74006 40940 ft 476 kts 349°
2026-04-26 06:09 33.74079 -82.74739 40924 ft 476 kts 349°
2026-04-26 06:09 33.80682 -82.75476 40930 ft 476 kts 349°
2026-04-26 06:10 33.87288 -82.76213 40924 ft 477 kts 349°
2026-04-26 06:10 33.93868 -82.76948 40914 ft 477 kts 349°
2026-04-26 06:11 34.00476 -82.77688 40948 ft 477 kts 349°
2026-04-26 06:11 34.07091 -82.78429 40923 ft 477 kts 349°
2026-04-26 06:12 34.13697 -82.79170 40926 ft 476 kts 349°
2026-04-26 06:12 34.20286 -82.79912 40924 ft 475 kts 349°
2026-04-26 06:13 34.26876 -82.80656 40940 ft 475 kts 349°
2026-04-26 06:13 34.33426 -82.81395 40912 ft 476 kts 349°
2026-04-26 06:14 34.40024 -82.82141 40905 ft 476 kts 349°
2026-04-26 06:14 34.46619 -82.82888 40933 ft 476 kts 349°
2026-04-26 06:15 34.53215 -82.83636 40956 ft 476 kts 349°
2026-04-26 06:15 34.59829 -82.84388 40945 ft 477 kts 349°
2026-04-26 06:16 34.66455 -82.85142 40937 ft 478 kts 349°
2026-04-26 06:16 34.73038 -82.85891 40944 ft 478 kts 349°
2026-04-26 06:17 34.79661 -82.86647 40944 ft 478 kts 349°
2026-04-26 06:17 34.86292 -82.87405 40926 ft 479 kts 349°
2026-04-26 06:18 34.92931 -82.88166 40923 ft 479 kts 349°
2026-04-26 06:18 34.99561 -82.88956 40920 ft 478 kts 349°
2026-04-26 06:19 35.06187 -82.89794 40931 ft 479 kts 349°
2026-04-26 06:19 35.12820 -82.90636 40916 ft 479 kts 349°
2026-04-26 06:20 35.19408 -82.91465 40924 ft 480 kts 349°
2026-04-26 06:20 35.26058 -82.92300 40923 ft 480 kts 349°
2026-04-26 06:21 35.32712 -82.93135 40933 ft 480 kts 349°
2026-04-26 06:21 35.39364 -82.93972 40930 ft 481 kts 349°
2026-04-26 06:22 35.46018 -82.94811 40928 ft 481 kts 349°
2026-04-26 06:22 35.52636 -82.95648 40929 ft 481 kts 349°
2026-04-26 06:23 35.59295 -82.96491 40927 ft 481 kts 349°
2026-04-26 06:23 35.65957 -82.97335 40922 ft 481 kts 349°
2026-04-26 06:24 35.72609 -82.98181 40928 ft 481 kts 349°
2026-04-26 06:24 35.79273 -82.99032 40923 ft 481 kts 349°
2026-04-26 06:25 35.85933 -82.99878 40917 ft 481 kts 349°
2026-04-26 06:25 35.92544 -83.00719 40924 ft 480 kts 349°
2026-04-26 06:26 35.99198 -83.01569 40931 ft 480 kts 349°
2026-04-26 06:26 36.05857 -83.02421 40948 ft 481 kts 349°
2026-04-26 06:27 36.12517 -83.03276 40940 ft 481 kts 349°
2026-04-26 06:27 36.19175 -83.04132 40940 ft 481 kts 349°
2026-04-26 06:28 36.25836 -83.04989 40937 ft 481 kts 349°
2026-04-26 06:28 36.32459 -83.05842 40944 ft 481 kts 349°
2026-04-26 06:29 36.39115 -83.06702 40934 ft 481 kts 349°
2026-04-26 06:29 36.45779 -83.07564 40930 ft 481 kts 349°
2026-04-26 06:30 36.52444 -83.08428 40928 ft 481 kts 349°
2026-04-26 06:30 36.59104 -83.09293 40928 ft 481 kts 349°
2026-04-26 06:31 36.65768 -83.10159 40946 ft 481 kts 349°
2026-04-26 06:31 36.72387 -83.11021 40931 ft 481 kts 349°
2026-04-26 06:32 36.79055 -83.11891 40935 ft 481 kts 349°
2026-04-26 06:32 36.85718 -83.12762 40939 ft 481 kts 349°
2026-04-26 06:33 36.92366 -83.13633 40939 ft 481 kts 349°
2026-04-26 06:33 36.99015 -83.14505 40941 ft 480 kts 349°
2026-04-26 06:34 37.05668 -83.15380 40949 ft 480 kts 349°
2026-04-26 06:34 37.12261 -83.16247 40940 ft 479 kts 349°
2026-04-26 06:35 37.18881 -83.17120 40939 ft 478 kts 349°
2026-04-26 06:35 37.25494 -83.17994 40942 ft 478 kts 349°
2026-04-26 06:36 37.32103 -83.18869 40991 ft 477 kts 349°
2026-04-26 06:36 37.38709 -83.19744 40989 ft 477 kts 349°
2026-04-26 06:37 37.45305 -83.20619 40988 ft 477 kts 349°
2026-04-26 06:37 37.51909 -83.21498 40986 ft 476 kts 349°
2026-04-26 06:38 37.58455 -83.22371 40989 ft 476 kts 350°
2026-04-26 06:38 37.65047 -83.23251 40989 ft 476 kts 350°
2026-04-26 06:39 37.71642 -83.24133 40985 ft 476 kts 350°
2026-04-26 06:39 37.78241 -83.25018 40987 ft 476 kts 350°
2026-04-26 06:40 37.84824 -83.25949 40978 ft 476 kts 349°
2026-04-26 06:40 37.91415 -83.26919 40979 ft 476 kts 349°
2026-04-26 06:41 37.97987 -83.27882 40977 ft 476 kts 349°
2026-04-26 06:41 38.04525 -83.28836 40979 ft 476 kts 349°
2026-04-26 06:42 38.11116 -83.29796 40985 ft 476 kts 349°
2026-04-26 06:42 38.17711 -83.30759 40997 ft 476 kts 349°
2026-04-26 06:43 38.24253 -83.31715 40990 ft 476 kts 349°
2026-04-26 06:43 38.30830 -83.32679 40991 ft 476 kts 349°
2026-04-26 06:44 38.37404 -83.33644 40990 ft 476 kts 349°
2026-04-26 06:44 38.43984 -83.34611 40991 ft 476 kts 349°
2026-04-26 06:45 38.50567 -83.35581 40998 ft 475 kts 349°
2026-04-26 06:45 38.57135 -83.36550 41001 ft 475 kts 349°
2026-04-26 06:46 38.63708 -83.37522 41003 ft 475 kts 349°
2026-04-26 06:46 38.70284 -83.38497 41007 ft 475 kts 349°
2026-04-26 06:47 38.76821 -83.39467 41011 ft 475 kts 349°
2026-04-26 06:47 38.83393 -83.40444 41013 ft 475 kts 349°
2026-04-26 06:48 38.89960 -83.41422 41014 ft 474 kts 349°
2026-04-26 06:48 38.96476 -83.42395 41021 ft 474 kts 349°
2026-04-26 06:49 39.03036 -83.43375 41027 ft 474 kts 349°
2026-04-26 06:49 39.09588 -83.44357 41025 ft 474 kts 349°
2026-04-26 06:50 39.16140 -83.45340 41030 ft 474 kts 349°
2026-04-26 06:50 39.22691 -83.46325 41031 ft 473 kts 349°
2026-04-26 06:51 39.29233 -83.47311 41031 ft 473 kts 349°
2026-04-26 06:51 39.39047 -83.48793 41048 ft 473 kts 349°
2026-04-26 06:52 39.45586 -83.49782 41048 ft 473 kts 349°
2026-04-26 06:52 39.52124 -83.50774 41049 ft 473 kts 349°
2026-04-26 06:53 39.58655 -83.51766 41052 ft 473 kts 349°
2026-04-26 06:53 39.65148 -83.52754 41061 ft 473 kts 349°
2026-04-26 06:54 39.71678 -83.53750 41063 ft 472 kts 349°
2026-04-26 06:54 39.78211 -83.54749 41069 ft 472 kts 349°
2026-04-26 06:55 39.84733 -83.55747 41072 ft 472 kts 349°
2026-04-26 06:55 39.91255 -83.56748 41073 ft 472 kts 349°
2026-04-26 06:56 39.96683 -83.57582 41074 ft 472 kts 349°
2026-04-26 06:56 40.04275 -83.58740 41074 ft 472 kts 350°
2026-04-26 06:57 40.09709 -83.59482 41079 ft 472 kts 351°
2026-04-26 06:57 40.14481 -83.60108 41080 ft 473 kts 351°